Time,TemperatureF,DewpointF,PressureIn,WindDirection,WindDirectionDegrees,WindSpeedMPH,WindSpeedGustMPH,Humidity,HourlyPrecipIn,Conditions,Clouds,dailyrainin,SoftwareType,DateUTC
2013-01-03 00:03:00,22.0,12.0,-100.00,SSE,160,4.0,7.0,64,-99.99,,,-99.99,,2013-01-03 05:03:00,
2013-01-03 00:12:00,22.0,12.0,-100.00,SSW,205,3.0,8.0,64,-99.99,,,-99.99,,2013-01-03 05:12:00,
2013-01-03 00:23:00,22.0,12.0,-100.00,South,170,4.0,7.0,65,-99.99,,,-99.99,,2013-01-03 05:23:00,
2013-01-03 00:33:00,22.0,12.0,-100.00,South,170,4.0,7.0,65,-99.99,,,-99.99,,2013-01-03 05:33:00,
2013-01-03 00:42:00,22.0,13.0,-100.00,South,180,5.0,11.0,65,-99.99,,,-99.99,,2013-01-03 05:42:00,
2013-01-03 00:52:00,23.0,13.0,-100.00,South,170,4.0,7.0,65,-99.99,,,-99.99,,2013-01-03 05:52:00,
2013-01-03 01:02:00,23.0,13.0,-100.00,South,170,4.0,7.0,65,-99.99,,,-99.99,,2013-01-03 06:02:00,
2013-01-03 01:12:00,23.0,13.0,-100.00,South,190,6.0,10.0,65,-99.99,,,-99.99,,2013-01-03 06:12:00,
2013-01-03 01:22:00,23.0,13.0,-100.00,South,175,5.0,11.0,65,-99.99,,,-99.99,,2013-01-03 06:22:00,
2013-01-03 01:33:00,23.0,13.0,-100.00,South,175,5.0,11.0,65,-99.99,,,-99.99,,2013-01-03 06:33:00,
2013-01-03 01:42:00,22.0,12.0,-100.00,South,190,5.0,11.0,65,-99.99,,,-99.99,,2013-01-03 06:42:00,
2013-01-03 01:52:00,22.0,12.0,-100.00,South,180,6.0,9.0,65,-99.99,,,-99.99,,2013-01-03 06:52:00,
2013-01-03 02:02:00,21.0,11.0,-100.00,South,180,5.0,9.0,65,-99.99,,,-99.99,,2013-01-03 07:02:00,
2013-01-03 02:12:00,21.0,11.0,-100.00,South,180,5.0,9.0,65,-99.99,,,-99.99,,2013-01-03 07:12:00,
2013-01-03 02:22:00,20.0,10.0,-100.00,SSE,165,2.0,8.0,65,-99.99,,,-99.99,,2013-01-03 07:22:00,
2013-01-03 02:33:00,20.0,10.0,-100.00,South,185,2.0,9.0,65,-99.99,,,-99.99,,2013-01-03 07:33:00,
2013-01-03 02:42:00,20.0,10.0,-100.00,South,190,2.0,7.0,65,-99.99,,,-99.99,,2013-01-03 07:42:00,
2013-01-03 02:53:00,19.0,9.0,-100.00,SE,125,2.0,5.0,65,-99.99,,,-99.99,,2013-01-03 07:53:00,
2013-01-03 03:02:00,18.0,9.0,-100.00,ESE,115,2.0,7.0,66,-99.99,,,-99.99,,2013-01-03 08:02:00,
2013-01-03 03:12:00,18.0,8.0,-100.00,SSE,160,1.0,4.0,66,-99.99,,,-99.99,,2013-01-03 08:12:00,
2013-01-03 03:22:00,18.0,8.0,-100.00,SE,140,1.0,6.0,66,-99.99,,,-99.99,,2013-01-03 08:22:00,
2013-01-03 03:33:00,18.0,8.0,-100.00,SSE,165,2.0,7.0,66,-99.99,,,-99.99,,2013-01-03 08:33:00,
2013-01-03 03:42:00,18.0,9.0,-100.00,SSE,150,2.0,7.0,67,-99.99,,,-99.99,,2013-01-03 08:42:00,
2013-01-03 03:53:00,18.0,9.0,-100.00,SSE,155,2.0,7.0,67,-99.99,,,-99.99,,2013-01-03 08:53:00,
2013-01-03 04:03:00,18.0,9.0,-100.00,SSE,155,2.0,7.0,67,-99.99,,,-99.99,,2013-01-03 09:03:00,
2013-01-03 04:12:00,19.0,9.0,-100.00,SE,130,3.0,9.0,66,-99.99,,,-99.99,,2013-01-03 09:12:00,
2013-01-03 04:22:00,18.0,9.0,-100.00,SE,140,3.0,8.0,65,-99.99,,,-99.99,,2013-01-03 09:22:00,
2013-01-03 04:33:00,18.0,8.0,-100.00,South,185,3.0,9.0,65,-99.99,,,-99.99,,2013-01-03 09:33:00,
2013-01-03 04:43:00,18.0,8.0,-100.00,SSE,150,1.0,7.0,65,-99.99,,,-99.99,,2013-01-03 09:43:00,
2013-01-03 04:52:00,18.0,8.0,-100.00,SSE,150,1.0,7.0,65,-99.99,,,-99.99,,2013-01-03 09:52:00,
2013-01-03 05:02:00,17.0,7.0,-100.00,SE,140,1.0,6.0,64,-99.99,,,-99.99,,2013-01-03 10:02:00,
2013-01-03 05:12:00,17.0,7.0,-100.00,SE,130,1.0,5.0,64,-99.99,,,-99.99,,2013-01-03 10:12:00,
2013-01-03 05:22:00,17.0,7.0,-100.00,SSE,160,2.0,6.0,64,-99.99,,,-99.99,,2013-01-03 10:22:00,
2013-01-03 05:33:00,18.0,8.0,-100.00,SSE,155,2.0,6.0,64,-99.99,,,-99.99,,2013-01-03 10:33:00,
2013-01-03 05:42:00,18.0,8.0,-100.00,SE,140,2.0,7.0,64,-99.99,,,-99.99,,2013-01-03 10:42:00,
2013-01-03 05:52:00,17.0,7.0,-100.00,South,170,1.0,6.0,64,-99.99,,,-99.99,,2013-01-03 10:52:00,
2013-01-03 06:02:00,17.0,7.0,-100.00,South,170,1.0,6.0,64,-99.99,,,-99.99,,2013-01-03 11:02:00,
2013-01-03 06:12:00,16.0,6.0,-100.00,SE,125,1.0,4.0,65,-99.99,,,-99.99,,2013-01-03 11:12:00,
2013-01-03 06:23:00,16.0,6.0,-100.00,East,95,1.0,5.0,65,-99.99,,,-99.99,,2013-01-03 11:23:00,
2013-01-03 06:33:00,16.0,7.0,-100.00,ENE,70,2.0,4.0,66,-99.99,,,-99.99,,2013-01-03 11:33:00,
2013-01-03 06:43:00,16.0,7.0,-100.00,SE,140,2.0,6.0,66,-99.99,,,-99.99,,2013-01-03 11:43:00,
2013-01-03 06:53:00,16.0,7.0,-100.00,East,100,2.0,5.0,66,-99.99,,,-99.99,,2013-01-03 11:53:00,
2013-01-03 07:03:00,17.0,8.0,-100.00,SSE,150,2.0,6.0,66,-99.99,,,-99.99,,2013-01-03 12:03:00,
2013-01-03 07:12:00,17.0,8.0,-100.00,ESE,120,1.0,7.0,66,-99.99,,,-99.99,,2013-01-03 12:12:00,
2013-01-03 07:22:00,17.0,8.0,-100.00,SE,130,2.0,7.0,66,-99.99,,,-99.99,,2013-01-03 12:22:00,
2013-01-03 07:33:00,17.0,8.0,-100.00,SE,140,1.0,9.0,65,-99.99,,,-99.99,,2013-01-03 12:33:00,
2013-01-03 07:42:00,17.0,7.0,-100.00,SE,145,2.0,7.0,64,-99.99,,,-99.99,,2013-01-03 12:42:00,
2013-01-03 07:52:00,17.0,7.0,-100.00,ESE,110,2.0,7.0,64,-99.99,,,-99.99,,2013-01-03 12:52:00,
2013-01-03 08:02:00,17.0,7.0,-100.00,NE,55,1.0,7.0,63,-99.99,,,-99.99,,2013-01-03 13:02:00,
2013-01-03 08:13:00,17.0,7.0,-100.00,SSE,150,2.0,6.0,62,-99.99,,,-99.99,,2013-01-03 13:13:00,
2013-01-03 08:22:00,18.0,7.0,-100.00,SE,145,2.0,7.0,61,-99.99,,,-99.99,,2013-01-03 13:22:00,
2013-01-03 08:33:00,18.0,6.0,-100.00,SSE,155,3.0,10.0,59,-99.99,,,-99.99,,2013-01-03 13:33:00,
2013-01-03 08:42:00,19.0,6.0,-100.00,SE,125,4.0,9.0,58,-99.99,,,-99.99,,2013-01-03 13:42:00,
2013-01-03 08:52:00,19.0,6.0,-100.00,ESE,120,2.0,11.0,56,-99.99,,,-99.99,,2013-01-03 13:52:00,
2013-01-03 09:03:00,19.0,6.0,-100.00,SSE,160,4.0,10.0,55,-99.99,,,-99.99,,2013-01-03 14:03:00,
2013-01-03 09:12:00,20.0,6.0,-100.00,South,175,4.0,10.0,54,-99.99,,,-99.99,,2013-01-03 14:12:00,
2013-01-03 09:23:00,20.0,6.0,-100.00,SSE,155,4.0,12.0,54,-99.99,,,-99.99,,2013-01-03 14:23:00,
2013-01-03 09:33:00,21.0,7.0,-100.00,SSW,200,4.0,12.0,54,-99.99,,,-99.99,,2013-01-03 14:33:00,
2013-01-03 09:42:00,21.0,8.0,-100.00,ESE,120,3.0,10.0,54,-99.99,,,-99.99,,2013-01-03 14:42:00,
2013-01-03 09:53:00,22.0,8.0,-100.00,SSE,155,4.0,12.0,54,-99.99,,,-99.99,,2013-01-03 14:53:00,
2013-01-03 10:03:00,22.0,9.0,-100.00,SSE,150,4.0,11.0,54,-99.99,,,-99.99,,2013-01-03 15:03:00,
2013-01-03 10:12:00,23.0,9.0,-100.00,SSE,160,4.0,9.0,54,-99.99,,,-99.99,,2013-01-03 15:12:00,
2013-01-03 10:23:00,24.0,9.0,-100.00,South,170,4.0,11.0,54,-99.99,,,-99.99,,2013-01-03 15:23:00,
2013-01-03 10:33:00,24.0,10.0,-100.00,SSE,160,4.0,10.0,53,-99.99,,,-99.99,,2013-01-03 15:33:00,
2013-01-03 10:43:00,24.0,10.0,-100.00,South,170,3.0,7.0,53,-99.99,,,-99.99,,2013-01-03 15:43:00,
2013-01-03 10:53:00,25.0,10.0,-100.00,South,170,3.0,10.0,52,-99.99,,,-99.99,,2013-01-03 15:53:00,
2013-01-03 11:03:00,26.0,10.0,-100.00,SSE,165,4.0,9.0,51,-99.99,,,-99.99,,2013-01-03 16:03:00,
2013-01-03 11:12:00,26.0,11.0,-100.00,SSE,160,3.0,7.0,51,-99.99,,,-99.99,,2013-01-03 16:12:00,
2013-01-03 11:22:00,26.0,11.0,-100.00,SSE,155,4.0,9.0,50,-99.99,,,-99.99,,2013-01-03 16:22:00,
2013-01-03 11:33:00,27.0,11.0,-100.00,South,170,2.0,10.0,50,-99.99,,,-99.99,,2013-01-03 16:33:00,
2013-01-03 11:43:00,27.0,11.0,-100.00,SSE,160,4.0,9.0,50,-99.99,,,-99.99,,2013-01-03 16:43:00,
2013-01-03 11:53:00,28.0,12.0,-100.00,SSE,160,4.0,11.0,49,-99.99,,,-99.99,,2013-01-03 16:53:00,
2013-01-03 12:03:00,28.0,12.0,-100.00,South,190,6.0,14.0,48,-99.99,,,-99.99,,2013-01-03 17:03:00,
2013-01-03 12:12:00,29.0,12.0,-100.00,South,180,5.0,9.0,48,-99.99,,,-99.99,,2013-01-03 17:12:00,
2013-01-03 12:23:00,30.0,13.0,-100.00,SSW,210,7.0,12.0,48,-99.99,,,-99.99,,2013-01-03 17:23:00,
2013-01-03 12:33:00,31.0,13.0,-100.00,SW,220,7.0,12.0,47,-99.99,,,-99.99,,2013-01-03 17:33:00,
2013-01-03 12:43:00,32.0,14.0,-100.00,South,190,6.0,13.0,47,-99.99,,,-99.99,,2013-01-03 17:43:00,
2013-01-03 12:53:00,31.0,14.0,-100.00,South,190,6.0,14.0,47,-99.99,,,-99.99,,2013-01-03 17:53:00,
2013-01-03 13:03:00,32.0,14.0,-100.00,SSW,210,6.0,16.0,47,-99.99,,,-99.99,,2013-01-03 18:03:00,
2013-01-03 13:13:00,32.0,14.0,-100.00,SW,215,9.0,15.0,47,-99.99,,,-99.99,,2013-01-03 18:13:00,
2013-01-03 13:22:00,32.0,15.0,-100.00,SW,225,6.0,14.0,48,-99.99,,,-99.99,,2013-01-03 18:22:00,
2013-01-03 13:33:00,33.0,16.0,-100.00,SW,215,6.0,12.0,48,-99.99,,,-99.99,,2013-01-03 18:33:00,
2013-01-03 13:43:00,34.0,17.0,-100.00,SSW,200,7.0,16.0,49,-99.99,,,-99.99,,2013-01-03 18:43:00,
2013-01-03 13:53:00,34.0,17.0,-100.00,SSW,200,7.0,16.0,49,-99.99,,,-99.99,,2013-01-03 18:53:00,
2013-01-03 14:03:00,42.0,25.0,-100.00,SSW,210,9.0,15.0,50,-99.99,,,-99.99,,2013-01-03 19:03:00,
2013-01-03 14:12:00,44.0,28.0,-100.00,South,170,6.0,17.0,52,-99.99,,,-99.99,,2013-01-03 19:12:00,
2013-01-03 14:56:00,42.0,27.0,-100.00,SW,215,7.0,17.0,53,-99.99,,,-99.99,,2013-01-03 19:56:00,
2013-01-03 15:03:00,40.0,25.0,-100.00,SW,235,10.0,16.0,56,-99.99,,,-99.99,,2013-01-03 20:03:00,
2013-01-03 15:12:00,38.0,24.0,-100.00,SSW,200,9.0,17.0,56,-99.99,,,-99.99,,2013-01-03 20:12:00,
2013-01-03 15:22:00,38.0,25.0,-100.00,SW,225,9.0,19.0,57,-99.99,,,-99.99,,2013-01-03 20:22:00,
2013-01-03 15:33:00,37.0,24.0,-100.00,SW,220,11.0,17.0,58,-99.99,,,-99.99,,2013-01-03 20:33:00,
2013-01-03 15:42:00,35.0,22.0,-100.00,SW,215,12.0,17.0,58,-99.99,,,-99.99,,2013-01-03 20:42:00,
2013-01-03 15:53:00,35.0,22.0,-100.00,SW,215,10.0,18.0,58,-99.99,,,-99.99,,2013-01-03 20:53:00,
2013-01-03 16:03:00,35.0,22.0,-100.00,SSW,205,8.0,17.0,59,-99.99,,,-99.99,,2013-01-03 21:03:00,
2013-01-03 16:12:00,35.0,23.0,-100.00,SW,215,10.0,17.0,59,-99.99,,,-99.99,,2013-01-03 21:12:00,
2013-01-03 16:23:00,36.0,24.0,-100.00,SW,225,7.0,16.0,60,-99.99,,,-99.99,,2013-01-03 21:23:00,
2013-01-03 16:37:00,36.0,24.0,-100.00,SW,220,7.0,18.0,61,-99.99,,,-99.99,,2013-01-03 21:37:00,
2013-01-03 16:48:00,37.0,25.0,-100.00,SW,225,7.0,13.0,61,-99.99,,,-99.99,,2013-01-03 21:48:00,
2013-01-03 17:03:00,35.0,24.0,-100.00,SSW,210,7.0,14.0,62,-99.99,,,-99.99,,2013-01-03 22:03:00,
2013-01-03 17:12:00,33.0,22.0,-100.00,SW,235,9.0,14.0,64,-99.99,,,-99.99,,2013-01-03 22:12:00,
2013-01-03 17:22:00,32.0,22.0,-100.00,SW,235,9.0,16.0,65,-99.99,,,-99.99,,2013-01-03 22:22:00,
2013-01-03 17:33:00,32.0,22.0,-100.00,SW,220,10.0,17.0,65,-99.99,,,-99.99,,2013-01-03 22:33:00,
2013-01-03 17:43:00,31.0,21.0,-100.00,SSW,205,9.0,17.0,65,-99.99,,,-99.99,,2013-01-03 22:43:00,
2013-01-03 17:52:00,31.0,21.0,-100.00,SSW,195,10.0,19.0,66,-99.99,,,-99.99,,2013-01-03 22:52:00,
2013-01-03 18:03:00,31.0,21.0,-100.00,SSW,195,10.0,19.0,66,-99.99,,,-99.99,,2013-01-03 23:03:00,
2013-01-03 18:12:00,31.0,21.0,-100.00,SSW,205,7.0,15.0,66,-99.99,,,-99.99,,2013-01-03 23:12:00,
2013-01-03 18:22:00,31.0,21.0,-100.00,South,190,7.0,16.0,66,-99.99,,,-99.99,,2013-01-03 23:22:00,
2013-01-03 18:33:00,31.0,21.0,-100.00,SW,230,7.0,16.0,66,-99.99,,,-99.99,,2013-01-03 23:33:00,
2013-01-03 18:43:00,31.0,21.0,-100.00,SSW,205,11.0,18.0,66,-99.99,,,-99.99,,2013-01-03 23:43:00,
2013-01-03 18:52:00,31.0,21.0,-100.00,SW,220,7.0,14.0,66,-99.99,,,-99.99,,2013-01-03 23:52:00,
2013-01-03 19:03:00,31.0,20.0,-100.00,SSW,210,8.0,20.0,66,-99.99,,,-99.99,,2013-01-04 00:03:00,
2013-01-03 19:12:00,31.0,20.0,-100.00,SW,215,9.0,15.0,66,-99.99,,,-99.99,,2013-01-04 00:12:00,
2013-01-03 19:22:00,31.0,20.0,-100.00,SW,220,11.0,17.0,66,-99.99,,,-99.99,,2013-01-04 00:22:00,
2013-01-03 19:32:00,31.0,20.0,-100.00,SW,220,11.0,19.0,66,-99.99,,,-99.99,,2013-01-04 00:32:00,
2013-01-03 19:42:00,31.0,21.0,-100.00,SW,220,11.0,19.0,66,-99.99,,,-99.99,,2013-01-04 00:42:00,
2013-01-03 19:52:00,31.0,21.0,-100.00,SW,225,7.0,16.0,66,-99.99,,,-99.99,,2013-01-04 00:52:00,
2013-01-03 20:02:00,31.0,21.0,-100.00,SW,235,7.0,15.0,67,-99.99,,,-99.99,,2013-01-04 01:02:00,
2013-01-03 20:12:00,30.0,21.0,-100.00,SW,220,7.0,13.0,67,-99.99,,,-99.99,,2013-01-04 01:12:00,
2013-01-03 20:22:00,31.0,21.0,-100.00,SW,230,7.0,19.0,67,-99.99,,,-99.99,,2013-01-04 01:22:00,
2013-01-03 20:33:00,31.0,21.0,-100.00,SW,235,11.0,18.0,67,-99.99,,,-99.99,,2013-01-04 01:33:00,
2013-01-03 20:42:00,30.0,21.0,-100.00,SW,230,10.0,17.0,68,-99.99,,,-99.99,,2013-01-04 01:42:00,
2013-01-03 20:52:00,30.0,21.0,-100.00,SW,225,9.0,22.0,68,-99.99,,,-99.99,,2013-01-04 01:52:00,
2013-01-03 21:02:00,30.0,21.0,-100.00,SW,225,9.0,22.0,68,-99.99,,,-99.99,,2013-01-04 02:02:00,
2013-01-03 21:12:00,30.0,21.0,-100.00,SSW,205,9.0,16.0,68,-99.99,,,-99.99,,2013-01-04 02:12:00,
2013-01-03 21:22:00,30.0,21.0,-100.00,SW,220,9.0,16.0,68,-99.99,,,-99.99,,2013-01-04 02:22:00,
2013-01-03 21:33:00,31.0,22.0,-100.00,SW,215,8.0,15.0,69,-99.99,,,-99.99,,2013-01-04 02:33:00,
2013-01-03 21:42:00,31.0,22.0,-100.00,SW,230,9.0,13.0,69,-99.99,,,-99.99,,2013-01-04 02:42:00,
2013-01-03 21:52:00,31.0,23.0,-100.00,WSW,240,9.0,19.0,69,-99.99,,,-99.99,,2013-01-04 02:52:00,
2013-01-03 22:03:00,32.0,23.0,-100.00,SW,215,9.0,16.0,69,-99.99,,,-99.99,,2013-01-04 03:03:00,
2013-01-03 22:12:00,32.0,24.0,-100.00,SW,225,8.0,17.0,71,-99.99,,,-99.99,,2013-01-04 03:12:00,
2013-01-03 22:22:00,32.0,24.0,-100.00,SW,225,8.0,17.0,71,-99.99,,,-99.99,,2013-01-04 03:22:00,
2013-01-03 22:33:00,32.0,23.0,-100.00,SW,235,9.0,17.0,71,-99.99,,,-99.99,,2013-01-04 03:33:00,
2013-01-03 22:42:00,31.0,23.0,-100.00,SW,225,12.0,17.0,71,-99.99,,,-99.99,,2013-01-04 03:42:00,
2013-01-03 22:52:00,31.0,23.0,-100.00,SW,225,9.0,18.0,71,-99.99,,,-99.99,,2013-01-04 03:52:00,
2013-01-03 23:02:00,31.0,23.0,-100.00,SW,235,9.0,17.0,71,-99.99,,,-99.99,,2013-01-04 04:02:00,
2013-01-03 23:12:00,31.0,23.0,-100.00,SW,215,9.0,17.0,71,-99.99,,,-99.99,,2013-01-04 04:12:00,
2013-01-03 23:22:00,31.0,23.0,-100.00,SW,235,9.0,17.0,71,-99.99,,,-99.99,,2013-01-04 04:22:00,
2013-01-03 23:32:00,31.0,23.0,-100.00,SW,225,8.0,16.0,71,-99.99,,,-99.99,,2013-01-04 04:32:00,
2013-01-03 23:42:00,31.0,23.0,-100.00,SW,220,7.0,18.0,71,-99.99,,,-99.99,,2013-01-04 04:42:00,
2013-01-03 23:52:00,31.0,23.0,-100.00,SW,225,11.0,19.0,71,-99.99,,,-99.99,,2013-01-04 04:52:00,